Weather History for KDXX - August, 2013

Change the Weather History Date:

Monday, August 26, 2013

  Actual Average (KAQP) Record (KAQP)
Temperature  
Mean Temperature 84 °F -  
Max Temperature 93 °F 77 °F 96 °F (2013)
Min Temperature 75 °F 55 °F 44 °F (2015)
Cooling Degree Days 19    
Growing Degree Days 34 (Base 50)    
Moisture  
Dew Point 73 °F    
Average Humidity 68    
Maximum Humidity 89    
Minimum Humidity 49    
Precipitation  
Precipitation 0.00 in - - ()
Sea Level Pressure  
Sea Level Pressure 29.89 in    
Wind  
Wind Speed 6 mph (South)    
Max Wind Speed 14 mph    
Max Gust Speed 20 mph    
Visibility 10 miles    
Events      
Averages and records for this station are not official NWS values.
T = Trace of Precipitation, MM = Missing Value Source: NWS Daily Summary

Daily Weather History Graph

Daily Weather History Graph

Search for Another Location

Airport or City:

Trip Planner

Search our weather history database for the weather conditions in past years. The results will help you decide how hot, cold, wet, or windy it might be!

Date:

Astronomy

Aug. 26, 2013 Rise Set
Actual Time 6:39 AM CDT 8:12 PM CDT
Civil Twilight 6:09 AM CDT 8:42 PM CDT
Nautical Twilight 5:31 AM CDT 9:19 PM CDT
Astronomical Twilight 4:51 AM CDT 9:59 PM CDT
Moon 11:04 PM CDT (8/26) 1:00 PM CDT (8/26)
Length of Visible Light 14h 33m
Length of Day
13h 32m
Waning Gibbous, 66% of the Moon is Illuminated
Aug 26
Waning Gibbous
Aug 28
Last Quarter
Sep 5
New
Sep 12
First Quarter
Sep 19
Full

Hourly Weather History & Observations

Time (CDT) Temp. Heat Index Dew Point Humidity Pressure Visibility Wind Dir Wind Speed Gust Speed Precip Events Conditions
12:14 AM 82.4 °F 89.5 °F 75.2 °F 79% 29.95 in 10.0 mi South 4.6 mph - N/A   Clear
12:33 AM 82.4 °F 89.5 °F 75.2 °F 79% 29.94 in 10.0 mi South 4.6 mph - N/A   Clear
12:53 AM 80.6 °F 86.2 °F 75.2 °F 84% 29.94 in 10.0 mi SSW 4.6 mph - N/A   Clear
1:14 AM 84.2 °F 90.9 °F 73.4 °F 70% 29.94 in 10.0 mi SW 6.9 mph - N/A   Clear
1:34 AM 84.2 °F 90.9 °F 73.4 °F 70% 29.94 in 10.0 mi SW 6.9 mph - N/A   Clear
1:53 AM 82.4 °F 88.2 °F 73.4 °F 74% 29.94 in 10.0 mi SW 6.9 mph - N/A   Clear
2:14 AM 82.4 °F 88.2 °F 73.4 °F 74% 29.94 in 10.0 mi SW 5.8 mph - N/A   Clear
2:34 AM 82.4 °F 88.2 °F 73.4 °F 74% 29.94 in 10.0 mi SW 4.6 mph - N/A   Clear
2:53 AM 80.6 °F 85.4 °F 73.4 °F 79% 29.93 in 10.0 mi SW 5.8 mph - N/A   Clear
3:13 AM 80.6 °F 84.6 °F 71.6 °F 74% 29.94 in 10.0 mi WSW 4.6 mph - N/A   Clear
3:34 AM 80.6 °F 84.6 °F 71.6 °F 74% 29.94 in 10.0 mi SW 3.5 mph - N/A   Clear
3:54 AM 78.8 °F - 71.6 °F 78% 29.94 in 10.0 mi Calm Calm - N/A   Clear
4:13 AM 80.6 °F 84.6 °F 71.6 °F 74% 29.93 in 10.0 mi SW 8.1 mph - N/A   Clear
4:34 AM 80.6 °F 84.6 °F 71.6 °F 74% 29.93 in 10.0 mi SW 10.4 mph - N/A   Clear
4:54 AM 80.6 °F 84.6 °F 71.6 °F 74% 29.93 in 10.0 mi SSW 9.2 mph - N/A   Clear
5:13 AM 80.6 °F 84.6 °F 71.6 °F 74% 29.93 in 10.0 mi SW 10.4 mph 17.3 mph N/A   Clear
5:33 AM 80.6 °F 84.6 °F 71.6 °F 74% 29.93 in 10.0 mi SW 9.2 mph - N/A   Clear
5:54 AM 80.6 °F 84.6 °F 71.6 °F 74% 29.93 in 10.0 mi SW 10.4 mph - N/A   Clear
6:13 AM 78.8 °F - 71.6 °F 78% 29.93 in 10.0 mi SSW 8.1 mph - N/A   Clear
6:33 AM 78.8 °F - 71.6 °F 78% 29.93 in 10.0 mi SSW 3.5 mph - N/A   Clear
6:54 AM 75.2 °F - 71.6 °F 89% 29.94 in 10.0 mi Calm Calm - N/A   Clear
7:13 AM 75.2 °F - 71.6 °F 89% 29.94 in 7.0 mi Calm Calm - N/A   Clear
7:33 AM 75.2 °F - 71.6 °F 89% 29.95 in 10.0 mi Calm Calm - N/A   Clear
7:54 AM 78.8 °F - 71.6 °F 78% 29.95 in 10.0 mi Calm Calm - N/A   Clear
8:13 AM 78.8 °F - 71.6 °F 78% 29.94 in 10.0 mi Calm Calm - N/A   Clear
8:34 AM 80.6 °F 84.6 °F 71.6 °F 74% 29.94 in 10.0 mi East 3.5 mph - N/A   Clear
8:53 AM 82.4 °F 87.2 °F 71.6 °F 70% 29.93 in 10.0 mi Calm Calm - N/A   Clear
9:14 AM 82.4 °F 88.2 °F 73.4 °F 74% 29.93 in 10.0 mi South 3.5 mph - N/A   Clear
9:34 AM 84.2 °F 89.6 °F 71.6 °F 66% 29.93 in 10.0 mi SSW 3.5 mph - N/A   Clear
9:53 AM 86.0 °F 91.8 °F 71.6 °F 62% 29.93 in 10.0 mi SW 6.9 mph - N/A   Clear
10:14 AM 87.8 °F 93.8 °F 71.6 °F 58% 29.92 in 7.0 mi SSW 4.6 mph - N/A   Clear
10:34 AM 89.6 °F 94.7 °F 69.8 °F 52% 29.92 in 7.0 mi SSW 6.9 mph - N/A   Clear
10:53 AM 89.6 °F 94.7 °F 69.8 °F 52% 29.92 in 10.0 mi SSW 6.9 mph - N/A   Clear
11:14 AM 89.6 °F 94.7 °F 69.8 °F 52% 29.92 in 10.0 mi SSW 6.9 mph - N/A   Clear
11:34 AM 89.6 °F 94.7 °F 69.8 °F 52% 29.91 in 10.0 mi South 4.6 mph - N/A   Clear
11:53 AM 91.4 °F 98.4 °F 71.6 °F 52% 29.91 in 10.0 mi South 6.9 mph - N/A   Clear
12:14 PM 91.4 °F 98.4 °F 71.6 °F 52% 29.90 in 10.0 mi South 6.9 mph - N/A   Clear
12:34 PM 91.4 °F 98.4 °F 71.6 °F 52% 29.90 in 10.0 mi South 8.1 mph - N/A   Clear
12:53 PM 89.6 °F 96.2 °F 71.6 °F 55% 29.90 in 10.0 mi South 5.8 mph - N/A   Clear
1:14 PM 91.4 °F 98.4 °F 71.6 °F 52% 29.89 in 10.0 mi South 10.4 mph - N/A   Clear
1:34 PM 93.2 °F 100.5 °F 71.6 °F 49% 29.89 in 10.0 mi South 9.2 mph - N/A   Clear
1:53 PM 93.2 °F 100.5 °F 71.6 °F 49% 29.88 in 7.0 mi South 11.5 mph - N/A   Clear
2:14 PM 91.4 °F 98.4 °F 71.6 °F 52% 29.88 in 10.0 mi South 9.2 mph - N/A   Clear
2:34 PM 93.2 °F 102.4 °F 73.4 °F 52% 29.87 in 10.0 mi SSE 11.5 mph - N/A   Clear
2:53 PM 93.2 °F 102.4 °F 73.4 °F 52% 29.87 in 10.0 mi SSE 12.7 mph 18.4 mph N/A   Clear
3:14 PM 93.2 °F 102.4 °F 73.4 °F 52% 29.86 in 10.0 mi SSE 13.8 mph 17.3 mph N/A   Clear
3:34 PM 93.2 °F 102.4 °F 73.4 °F 52% 29.85 in 10.0 mi South 13.8 mph 17.3 mph N/A   Clear
3:53 PM 91.4 °F 100.1 °F 73.4 °F 55% 29.85 in 10.0 mi South 10.4 mph - N/A   Clear
4:14 PM 93.2 °F 102.4 °F 73.4 °F 52% 29.84 in 10.0 mi South 10.4 mph - N/A   Clear
4:34 PM 93.2 °F 105.0 °F 75.2 °F 56% 29.83 in 10.0 mi South 12.7 mph 18.4 mph N/A   Clear
4:53 PM 93.2 °F 105.0 °F 75.2 °F 56% 29.83 in 10.0 mi South 13.8 mph - N/A   Clear
5:14 PM 93.2 °F 105.0 °F 75.2 °F 56% 29.83 in 10.0 mi South 10.4 mph 17.3 mph N/A   Clear
5:34 PM 91.4 °F 102.5 °F 75.2 °F 59% 29.82 in 10.0 mi South 10.4 mph 17.3 mph N/A   Clear
5:53 PM 91.4 °F 102.5 °F 75.2 °F 59% 29.82 in 10.0 mi South 13.8 mph 19.6 mph N/A   Clear
6:14 PM 91.4 °F 102.5 °F 75.2 °F 59% 29.81 in 10.0 mi South 10.4 mph - N/A   Clear
6:34 PM 91.4 °F 102.5 °F 75.2 °F 59% 29.80 in 10.0 mi South 11.5 mph - N/A   Clear
6:53 PM 91.4 °F 102.5 °F 75.2 °F 59% 29.80 in 10.0 mi SSW 11.5 mph 18.4 mph N/A   Clear
7:14 PM 89.6 °F 99.8 °F 75.2 °F 62% 29.79 in 10.0 mi SSW 9.2 mph - N/A   Clear
7:34 PM 89.6 °F 99.8 °F 75.2 °F 62% 29.80 in 10.0 mi SSW 6.9 mph - N/A   Clear
7:53 PM 87.8 °F 97.6 °F 75.2 °F 66% 29.80 in 10.0 mi SSW 8.1 mph - N/A   Clear
8:14 PM 87.8 °F 97.6 °F 75.2 °F 66% 29.82 in 10.0 mi SSW 4.6 mph - N/A   Clear
8:34 PM 86.0 °F 95.1 °F 75.2 °F 70% 29.82 in 10.0 mi Calm Calm - N/A   Clear
8:53 PM 82.4 °F 89.5 °F 75.2 °F 79% 29.83 in 10.0 mi Calm Calm - N/A   Clear
9:14 PM 82.4 °F 89.5 °F 75.2 °F 79% 29.83 in 7.0 mi SE 3.5 mph - N/A   Clear
9:34 PM 84.2 °F 92.3 °F 75.2 °F 74% 29.82 in 10.0 mi SSE 4.6 mph - N/A   Clear
9:53 PM 82.4 °F 89.5 °F 75.2 °F 79% 29.83 in 10.0 mi ESE 4.6 mph - N/A   Clear
10:14 PM 80.6 °F 86.2 °F 75.2 °F 84% 29.83 in 10.0 mi ESE 4.6 mph - N/A   Clear
10:33 PM 80.6 °F 86.2 °F 75.2 °F 84% 29.83 in 10.0 mi East 5.8 mph - N/A   Clear
10:53 PM 78.8 °F - 75.2 °F 89% 29.82 in 10.0 mi East 6.9 mph - N/A   Clear
11:14 PM 80.6 °F 86.2 °F 75.2 °F 84% 29.82 in 10.0 mi East 6.9 mph - N/A   Clear
11:33 PM 80.6 °F 86.2 °F 75.2 °F 84% 29.82 in 10.0 mi East 5.8 mph - N/A   Clear
11:54 PM 78.8 °F - 75.2 °F 89% 29.82 in 10.0 mi ESE 5.8 mph - N/A   Clear